Time,TemperatureF,DewpointF,PressureIn,WindDirection,WindDirectionDegrees,WindSpeedMPH,WindSpeedGustMPH,Humidity,HourlyPrecipIn,Conditions,Clouds,dailyrainin,SoftwareType,DateUTC
2013-08-05 00:02:00,46.0,45.0,29.87,SSE,148,0.0,0.0,95,0.00,,,0.20,,2013-08-05 06:02:00,
2013-08-05 00:12:00,46.0,45.0,29.87,SSE,148,0.0,1.0,95,0.00,,,0.20,,2013-08-05 06:12:00,
2013-08-05 00:22:00,46.0,45.0,29.88,SSE,148,0.0,0.0,95,0.00,,,0.20,,2013-08-05 06:22:00,
2013-08-05 00:32:00,46.0,45.0,29.88,SSE,148,0.0,0.0,95,0.00,,,0.20,,2013-08-05 06:32:00,
2013-08-05 00:43:00,45.0,43.0,29.87,SSE,162,0.0,2.0,94,0.00,,,0.20,,2013-08-05 06:43:00,
2013-08-05 00:52:00,45.0,44.0,29.87,SSE,165,0.0,1.0,95,0.00,,,0.20,,2013-08-05 06:52:00,
2013-08-05 01:02:00,45.0,44.0,29.87,SSE,165,0.0,1.0,95,0.00,,,0.20,,2013-08-05 07:02:00,
2013-08-05 01:12:00,44.0,43.0,29.87,SSE,165,0.0,1.0,95,0.00,,,0.20,,2013-08-05 07:12:00,
2013-08-05 01:22:00,44.0,43.0,29.87,SSE,152,0.0,2.0,95,0.00,,,0.20,,2013-08-05 07:22:00,
2013-08-05 01:32:00,44.0,43.0,29.87,SSE,152,0.0,2.0,95,0.00,,,0.20,,2013-08-05 07:32:00,
2013-08-05 01:43:00,44.0,43.0,29.87,South,170,0.0,1.0,95,0.00,,,0.20,,2013-08-05 07:43:00,
2013-08-05 01:53:00,43.0,42.0,29.87,South,170,0.0,1.0,96,0.00,,,0.20,,2013-08-05 07:53:00,
2013-08-05 02:02:00,43.0,42.0,29.87,South,170,0.0,1.0,96,0.00,,,0.20,,2013-08-05 08:02:00,
2013-08-05 02:12:00,43.0,42.0,29.87,South,170,0.0,2.0,96,0.00,,,0.20,,2013-08-05 08:12:00,
2013-08-05 02:22:00,43.0,42.0,29.87,South,170,0.0,0.0,96,0.00,,,0.20,,2013-08-05 08:22:00,
2013-08-05 02:34:00,43.0,42.0,29.87,South,170,0.0,0.0,96,0.00,,,0.20,,2013-08-05 08:34:00,
2013-08-05 02:47:00,43.0,42.0,29.87,South,170,0.0,2.0,96,0.00,,,0.20,,2013-08-05 08:47:00,
2013-08-05 02:53:00,43.0,42.0,29.87,SSW,198,0.0,0.0,96,0.00,,,0.20,,2013-08-05 08:53:00,
2013-08-05 03:06:00,43.0,42.0,29.87,SSW,198,0.0,0.0,96,0.00,,,0.20,,2013-08-05 09:06:00,
2013-08-05 03:15:00,43.0,42.0,29.87,SSW,198,0.0,0.0,96,0.00,,,0.20,,2013-08-05 09:15:00,
2013-08-05 03:24:00,43.0,42.0,29.87,SSW,198,0.0,0.0,97,0.00,,,0.20,,2013-08-05 09:24:00,
2013-08-05 03:36:00,43.0,42.0,29.87,SSW,198,0.0,0.0,97,0.00,,,0.20,,2013-08-05 09:36:00,
2013-08-05 03:47:00,44.0,43.0,29.87,SSW,198,0.0,0.0,97,0.00,,,0.20,,2013-08-05 09:47:00,
2013-08-05 03:53:00,43.0,42.0,29.87,SSW,198,0.0,0.0,96,0.00,,,0.20,,2013-08-05 09:53:00,
2013-08-05 04:07:00,43.0,42.0,29.87,SSW,198,0.0,0.0,96,0.00,,,0.20,,2013-08-05 10:07:00,
2013-08-05 04:24:00,43.0,42.0,29.86,SSW,207,0.0,1.0,96,0.00,,,0.20,,2013-08-05 10:24:00,
2013-08-05 04:32:00,43.0,42.0,29.86,SSW,207,0.0,1.0,96,0.00,,,0.20,,2013-08-05 10:32:00,
2013-08-05 04:46:00,43.0,42.0,29.86,SSW,207,0.0,0.0,97,0.00,,,0.20,,2013-08-05 10:46:00,
2013-08-05 04:52:00,43.0,42.0,29.85,SSW,207,0.0,0.0,97,0.00,,,0.20,,2013-08-05 10:52:00,
2013-08-05 05:06:00,43.0,42.0,29.85,SSW,207,0.0,0.0,97,0.00,,,0.20,,2013-08-05 11:06:00,
2013-08-05 05:14:00,43.0,42.0,29.85,SSW,207,0.0,0.0,96,0.00,,,0.20,,2013-08-05 11:14:00,
2013-08-05 05:35:00,43.0,42.0,29.85,SSW,207,0.0,0.0,96,0.00,,,0.20,,2013-08-05 11:35:00,
2013-08-05 05:54:00,42.0,41.0,29.86,SSW,207,0.0,0.0,97,0.00,,,0.20,,2013-08-05 11:54:00,
2013-08-05 06:06:00,42.0,41.0,29.86,SSW,207,0.0,0.0,97,0.00,,,0.20,,2013-08-05 12:06:00,
2013-08-05 06:16:00,42.0,41.0,29.87,SSW,207,0.0,0.0,97,0.01,,,0.21,,2013-08-05 12:16:00,
2013-08-05 06:33:00,42.0,41.0,29.87,SSW,207,0.0,0.0,97,0.01,,,0.21,,2013-08-05 12:33:00,
2013-08-05 06:47:00,42.0,41.0,29.88,SSW,207,0.0,0.0,97,0.01,,,0.21,,2013-08-05 12:47:00,
2013-08-05 07:02:00,42.0,41.0,29.88,SSW,192,0.0,0.0,97,0.01,,,0.21,,2013-08-05 13:02:00,
2013-08-05 07:13:00,42.0,41.0,29.88,SSW,192,0.0,0.0,97,0.00,,,0.21,,2013-08-05 13:13:00,
2013-08-05 07:24:00,42.0,41.0,29.88,SSW,192,0.0,1.0,97,0.00,,,0.21,,2013-08-05 13:24:00,
2013-08-05 07:36:00,42.0,41.0,29.88,SSW,192,0.0,1.0,97,0.00,,,0.21,,2013-08-05 13:36:00,
2013-08-05 07:43:00,43.0,42.0,29.88,SSW,192,0.0,2.0,97,0.00,,,0.21,,2013-08-05 13:43:00,
2013-08-05 07:54:00,44.0,43.0,29.89,South,191,0.0,1.0,98,0.00,,,0.21,,2013-08-05 13:54:00,
2013-08-05 08:05:00,44.0,43.0,29.89,South,191,0.0,1.0,98,0.00,,,0.21,,2013-08-05 14:05:00,
2013-08-05 08:15:00,44.0,43.0,29.89,South,175,0.0,1.0,98,0.00,,,0.21,,2013-08-05 14:15:00,
2013-08-05 08:45:00,47.0,46.0,29.89,SSE,159,0.0,2.0,97,0.00,,,0.21,,2013-08-05 14:45:00,
2013-08-05 08:53:00,47.0,46.0,29.88,SSW,205,0.0,4.0,95,0.00,,,0.21,,2013-08-05 14:53:00,
2013-08-05 09:06:00,47.0,46.0,29.88,SSW,205,0.0,4.0,95,0.00,,,0.21,,2013-08-05 15:06:00,
2013-08-05 09:13:00,49.0,47.0,29.88,South,177,0.0,3.0,94,0.00,,,0.21,,2013-08-05 15:13:00,
2013-08-05 09:25:00,51.0,48.0,29.88,South,171,0.0,4.0,89,0.00,,,0.21,,2013-08-05 15:25:00,
2013-08-05 09:45:00,53.0,49.0,29.87,ESE,110,0.0,3.0,87,0.00,,,0.21,,2013-08-05 15:45:00,
2013-08-05 09:55:00,54.0,49.0,29.86,ESE,110,0.0,2.0,84,0.00,,,0.21,,2013-08-05 15:55:00,
2013-08-05 10:06:00,54.0,49.0,29.86,ESE,110,0.0,2.0,84,0.00,,,0.21,,2013-08-05 16:06:00,
2013-08-05 10:15:00,56.0,48.0,29.86,ESE,110,0.0,2.0,75,0.00,,,0.21,,2013-08-05 16:15:00,
2013-08-05 10:23:00,58.0,51.0,29.85,ESE,110,0.0,2.0,77,0.00,,,0.21,,2013-08-05 16:23:00,
2013-08-05 10:33:00,58.0,51.0,29.85,ESE,110,0.0,2.0,77,0.00,,,0.21,,2013-08-05 16:33:00,
2013-08-05 10:45:00,60.0,49.0,29.85,ESE,110,0.0,1.0,67,0.00,,,0.21,,2013-08-05 16:45:00,
2013-08-05 11:05:00,62.0,50.0,29.86,ESE,110,1.0,3.0,65,0.00,,,0.21,,2013-08-05 17:05:00,
2013-08-05 11:22:00,66.0,52.0,29.85,ENE,72,1.0,7.0,60,0.00,,,0.21,,2013-08-05 17:22:00,
2013-08-05 11:46:00,67.0,48.0,29.85,ESE,113,1.0,5.0,51,0.00,,,0.21,,2013-08-05 17:46:00,
2013-08-05 11:55:00,69.0,49.0,29.85,ESE,111,0.0,6.0,49,0.00,,,0.21,,2013-08-05 17:55:00,
2013-08-05 12:07:00,69.0,49.0,29.85,ESE,111,0.0,6.0,49,0.00,,,0.21,,2013-08-05 18:07:00,
2013-08-05 12:13:00,68.0,49.0,29.85,West,275,1.0,5.0,51,0.00,,,0.21,,2013-08-05 18:13:00,
2013-08-05 12:24:00,69.0,50.0,29.84,NE,43,1.0,7.0,51,0.00,,,0.21,,2013-08-05 18:24:00,
2013-08-05 12:44:00,68.0,47.0,29.83,NNE,22,0.0,6.0,47,0.00,,,0.21,,2013-08-05 18:44:00,
2013-08-05 12:53:00,66.0,48.0,29.83,SSE,160,0.0,2.0,52,0.00,,,0.21,,2013-08-05 18:53:00,
2013-08-05 13:05:00,66.0,48.0,29.83,SSE,160,0.0,2.0,52,0.00,,,0.21,,2013-08-05 19:05:00,
2013-08-05 13:14:00,64.0,44.0,29.82,North,5,0.0,3.0,49,0.00,,,0.21,,2013-08-05 19:14:00,
2013-08-05 13:25:00,65.0,45.0,29.81,North,355,0.0,3.0,48,0.00,,,0.21,,2013-08-05 19:25:00,
2013-08-05 13:35:00,65.0,45.0,29.81,North,355,0.0,3.0,48,0.00,,,0.21,,2013-08-05 19:35:00,
2013-08-05 13:48:00,66.0,48.0,29.81,SE,132,0.0,4.0,52,0.00,,,0.21,,2013-08-05 19:48:00,
2013-08-05 13:54:00,68.0,47.0,29.81,North,9,0.0,3.0,47,0.00,,,0.21,,2013-08-05 19:54:00,
2013-08-05 14:06:00,68.0,47.0,29.81,North,9,0.0,3.0,47,0.00,,,0.21,,2013-08-05 20:06:00,
2013-08-05 14:15:00,68.0,48.0,29.82,North,10,0.0,3.0,49,0.00,,,0.21,,2013-08-05 20:15:00,
2013-08-05 14:25:00,65.0,45.0,29.82,West,271,0.0,2.0,49,0.00,,,0.21,,2013-08-05 20:25:00,
2013-08-05 14:35:00,65.0,45.0,29.82,West,271,0.0,2.0,49,0.00,,,0.21,,2013-08-05 20:35:00,
2013-08-05 14:47:00,63.0,45.0,29.83,WSW,250,1.0,4.0,52,0.00,,,0.21,,2013-08-05 20:47:00,
2013-08-05 14:54:00,61.0,44.0,29.84,SW,229,2.0,10.0,54,0.00,,,0.21,,2013-08-05 20:54:00,
2013-08-05 15:05:00,61.0,44.0,29.84,SW,229,2.0,10.0,54,0.00,,,0.21,,2013-08-05 21:05:00,
2013-08-05 15:33:00,57.0,45.0,29.86,SSE,165,5.0,14.0,64,0.00,,,0.21,,2013-08-05 21:33:00,
2013-08-05 15:45:00,58.0,45.0,29.86,SE,136,2.0,10.0,63,0.00,,,0.21,,2013-08-05 21:45:00,
2013-08-05 15:53:00,59.0,46.0,29.86,SE,125,2.0,7.0,62,0.00,,,0.21,,2013-08-05 21:53:00,
2013-08-05 16:05:00,59.0,46.0,29.86,SE,125,2.0,7.0,62,0.00,,,0.21,,2013-08-05 22:05:00,
2013-08-05 16:25:00,62.0,47.0,29.85,ESE,104,0.0,5.0,57,0.00,,,0.21,,2013-08-05 22:25:00,
2013-08-05 16:35:00,62.0,47.0,29.85,ESE,104,0.0,5.0,57,0.00,,,0.21,,2013-08-05 22:35:00,
2013-08-05 16:43:00,63.0,45.0,29.85,ESE,111,0.0,8.0,51,0.00,,,0.21,,2013-08-05 22:43:00,
2013-08-05 16:53:00,63.0,45.0,29.84,ESE,104,0.0,3.0,51,0.00,,,0.21,,2013-08-05 22:53:00,
2013-08-05 17:05:00,63.0,45.0,29.84,ESE,104,0.0,3.0,51,0.00,,,0.21,,2013-08-05 23:05:00,
2013-08-05 17:24:00,60.0,47.0,29.86,North,355,2.0,9.0,62,0.00,,,0.21,,2013-08-05 23:24:00,
2013-08-05 17:33:00,60.0,47.0,29.86,North,355,2.0,9.0,62,0.00,,,0.21,,2013-08-05 23:33:00,
2013-08-05 17:46:00,58.0,46.0,29.86,NW,320,0.0,6.0,64,0.00,,,0.21,,2013-08-05 23:46:00,
2013-08-05 17:55:00,57.0,46.0,29.85,NE,54,1.0,6.0,67,0.00,,,0.21,,2013-08-05 23:55:00,
2013-08-05 18:02:00,57.0,46.0,29.85,NE,54,1.0,6.0,67,0.00,,,0.21,,2013-08-06 00:02:00,
2013-08-05 18:24:00,56.0,47.0,29.85,NNW,338,5.0,11.0,73,0.00,,,0.21,,2013-08-06 00:24:00,
2013-08-05 18:35:00,56.0,47.0,29.85,NNW,338,5.0,11.0,73,0.00,,,0.21,,2013-08-06 00:35:00,
2013-08-05 18:45:00,52.0,47.0,29.84,NW,319,0.0,6.0,84,0.02,,,0.23,,2013-08-06 00:45:00,
2013-08-05 19:06:00,52.0,47.0,29.84,SSE,166,0.0,6.0,83,0.02,,,0.23,,2013-08-06 01:06:00,
2013-08-05 19:25:00,54.0,47.0,29.84,WNW,284,0.0,2.0,78,0.02,,,0.23,,2013-08-06 01:25:00,
2013-08-05 19:47:00,54.0,49.0,29.85,WNW,284,0.0,1.0,82,0.00,,,0.18,,2013-08-06 01:47:00,
2013-08-05 19:54:00,53.0,47.0,29.85,SE,135,0.0,2.0,79,0.00,,,0.18,,2013-08-06 01:54:00,
2013-08-05 20:06:00,53.0,47.0,29.85,SE,135,0.0,2.0,79,0.00,,,0.18,,2013-08-06 02:06:00,
2013-08-05 20:25:00,53.0,48.0,29.85,South,171,0.0,3.0,82,0.00,,,0.18,,2013-08-06 02:25:00,
2013-08-05 20:32:00,53.0,48.0,29.85,South,171,0.0,3.0,82,0.00,,,0.18,,2013-08-06 02:32:00,
2013-08-05 20:45:00,52.0,47.0,29.85,South,171,0.0,2.0,83,0.00,,,0.09,,2013-08-06 02:45:00,
2013-08-05 20:52:00,51.0,46.0,29.85,South,171,0.0,3.0,84,0.00,,,0.09,,2013-08-06 02:52:00,
2013-08-05 21:01:00,51.0,46.0,29.85,South,171,0.0,3.0,84,0.00,,,0.09,,2013-08-06 03:01:00,
2013-08-05 21:25:00,50.0,45.0,29.87,North,355,0.0,2.0,84,0.00,,,0.09,,2013-08-06 03:25:00,
2013-08-05 21:35:00,50.0,45.0,29.87,North,355,0.0,2.0,84,0.00,,,0.09,,2013-08-06 03:35:00,
2013-08-05 21:45:00,50.0,46.0,29.87,NW,325,0.0,5.0,86,0.00,,,0.04,,2013-08-06 03:45:00,
2013-08-05 21:52:00,50.0,46.0,29.86,NW,308,0.0,3.0,86,0.00,,,0.04,,2013-08-06 03:52:00,
2013-08-05 22:01:00,50.0,46.0,29.86,NW,308,0.0,3.0,86,0.00,,,0.04,,2013-08-06 04:01:00,
2013-08-05 22:33:00,48.0,45.0,29.88,NW,308,0.0,1.0,88,0.00,,,0.04,,2013-08-06 04:33:00,
2013-08-05 22:44:00,49.0,46.0,29.88,NW,320,0.0,1.0,90,0.00,,,0.03,,2013-08-06 04:44:00,
2013-08-05 22:53:00,48.0,45.0,29.88,NW,320,0.0,2.0,89,0.00,,,0.03,,2013-08-06 04:53:00,
2013-08-05 23:02:00,48.0,45.0,29.88,NW,320,0.0,2.0,89,0.00,,,0.03,,2013-08-06 05:02:00,
2013-08-05 23:22:00,49.0,45.0,29.87,NW,304,0.0,1.0,86,0.01,,,0.04,,2013-08-06 05:22:00,
2013-08-05 23:32:00,49.0,45.0,29.87,NW,304,0.0,1.0,86,0.01,,,0.04,,2013-08-06 05:32:00,
2013-08-05 23:43:00,48.0,45.0,29.86,NW,304,0.0,0.0,89,0.01,,,0.04,,2013-08-06 05:43:00,
2013-08-05 23:53:00,48.0,45.0,29.85,West,278,0.0,1.0,90,0.01,,,0.04,,2013-08-06 05:53:00,